リード彗星

P/2005 U1 ( Read )

English version
Home page
Total 6,336 html files since Dec. 4, 1995
Updated on April 23, 2006

---------------------------------------------------------------------

・ プロフィール

発見日 2005年10月24日
発見光度 20.2等
発見者 Michael T. Read (Spacewatch)

・ 軌道要素

Epoch 2005 July 9.0 TT = JDT 2453560.5
T 2005 July 27.92466 TT                                 MPC
q   2.3648739            (2000.0)            P               Q
n   0.17505822     Peri.  325.79300     +0.95392822     -0.29953418
a   3.1648105      Node    51.64614     +0.27998167     +0.86792723
e   0.2527597      Incl.    1.26607     +0.10784810     +0.39620902
P   5.63

・ 光度変化

        m1 = 14.5 + 5 logΔ + 10.0 log r

---------------------------------------------------------------------

軌道要素はM.P.E.C. 2006-C65に掲載されたものです。
光度グラフはComet for Windowsで作成したものです。

---------------------------------------------------------------------

Copyright(C) 1995-2008 Seiichi Yoshida (comet@aerith.net). All rights reserved.